Regional Weather Roundup
Issued by NWS

Home | Current Version | Previous Version | Text Only | Print | Product List | Glossary On
Versions: 1 2 3 4 5 6 7 8 9 10 11 12 13 14 15 16 17 18 19 20 21 22 23 24 25 26 27 28 29 30 31 32 33 34 35 36 37 38 39 40 41 42 43 44 45 46 47 48 49 50
000
ASUS44 KEWX 241510
RWRTX
SOUTH TEXAS REGIONAL WEATHER ROUNDUP
NATIONAL WEATHER SERVICE AUSTIN/SAN ANTONIO TX
1000 AM CDT THU APR 24 2014

NOTE: "FAIR" INDICATED FEW OR NO CLOUDS BELOW 12,000 FEET WITH NO
SIGNIFICANT WEATHER AND/OR OBSTRUCTIONS TO VISIBILITY.

* - THESE STATIONS ARE NOT NWS OR FAA STATIONS...AND ARE NOT SUBJECT
    TO NWS AND FAA QUALITY CONTROL.

TXZ171-172-183>190-241600-
TEXAS HILL COUNTRY AND EDWARDS PLATEAU

CITY           SKY/WX    TMP DP  RH WIND       PRES   REMARKS
JUNCTION       SUNNY     74  61  63 W8        29.89R
*LLANO         CLOUDY    72  63  73 SW8       29.90R
BURNET         CLOUDY    69  61  75 SW12G18   29.90R
*HORSESHOE BAY CLOUDY    71  62  72 SW5       29.87R
*KERRVILLE     CLOUDY    66  63  88 SW5       29.91R
*FREDERICKSBRG CLOUDY    66  62  86 SW8       29.90R
*ROCKSPRINGS   SUNNY     70  61  73 SW7       29.94R
*BOERNE STAGE  CLOUDY    66  63  88 S7        29.90R
*CASTROVILLE   CLOUDY    69  65  86 CALM      29.89R
HONDO          CLOUDY    71  64  78 CALM      29.89R
*UVALDE        CLOUDY    70  67  89 CALM      29.88R
DEL RIO        SUNNY     73  62  68 CALM      29.88R
LAUGHLIN AFB   SUNNY     73  63  72 N1        29.89R
CARRIZO SPRGS  CLOUDY    72  64  78 CALM      29.84S
$$

TXZ173-191>194-202-209-217>225-228-241600-
CENTRAL AND SOUTH CENTRAL TEXAS

CITY           SKY/WX    TMP DP  RH WIND       PRES   REMARKS
GEORGETOWN     NOT AVBL
AUSTIN/BERGSTM CLOUDY    71  66  84 S9        29.86S
AUSTIN/MABRY   CLOUDY    70  63  78 S7        29.88R
*AUSTIN/EXEC   CLOUDY    70  66  88 SW10      29.88R
*LAGO VISTA    CLOUDY    69  63  79 SW13      29.89R
SAN MARCOS     CLOUDY    70  63  78 S12       29.88S
NEW BRAUNFELS  CLOUDY    70  65  84 SW8       29.86R
RANDOLPH AFB   CLOUDY    71  64  78 SW9       29.87R
PT SAN ANTONIO CLOUDY    70  64  82 VRB3      29.86R
SAN ANTONIO    CLOUDY    70  65  84 S10       29.87S
STINSON FIELD  CLOUDY    71  65  81 S3        29.85F
*PLEASANTON    CLOUDY    71  64  79 SE5       29.86S
*LA GRANGE     PTSUNNY   75  68  79 S9        29.86R
*GIDDINGS      CLOUDY    72  64  76 SW13      29.91R
*GONZALES      CLOUDY    73  67  83 SW8       29.86R
$$

TXZ163>164-176>182-195>201-210>213-226-227-235-241600-
SOUTHEAST TEXAS

CITY           SKY/WX    TMP DP  RH WIND       PRES   REMARKS
COLLEGE STN    PTSUNNY   73  65  75 S13       29.86R
*BRYAN         PTSUNNY   73  65  76 S14G20    29.86R
*CALDWELL      PTSUNNY   73  66  78 SW10      29.90R
*CROCKETT      PTSUNNY   77  68  73 S10G21    29.89R
*BRENHAM       PTSUNNY   72  65  79 S15G21    29.86S
HUNTSVILLE     MOSUNNY   75  63  66 S17G26    29.86F HAZE
CONROE         SUNNY     76  63  64 S16       29.88S
HOUSTON BUSH   MOSUNNY   76  64  66 S14G20    29.88S
HOUSTON HOBBY  PTSUNNY   76  65  68 S13G22    29.89R
*HOUSTON SW AP PTSUNNY   76  65  69 S14G22    29.91R
PEARLAND       MOSUNNY   76  64  66 S15       29.92R
HOUSTON HOOKS  MOSUNNY   75  65  70 S14G21    29.87F
ELLINGTON FLD  NOT AVBL
SUGAR LAND     PTSUNNY   74  66  76 S10G21    29.87F
*HOUSTON EXEC  PTSUNNY   73  68  83 S14       29.88S
*CLEVELAND MUN PTSUNNY   75  68  77 S9        29.89S HAZE
*WHARTON       DRIZZLE   72  66  81 SE21G26   29.84F
$$

TXZ214>216-236>238-241600-
THE UPPER TEXAS COAST

CITY           SKY/WX    TMP DP  RH WIND       PRES   REMARKS
*ORANGE        CLOUDY    73  66  80 S10       29.95R
PORT ARTHUR    PTSUNNY   75  66  73 S14       29.92S
GALVESTON      PTSUNNY   75  70  84 S14       29.92R
ANGLETON       PTSUNNY   75  66  73 S17       29.91R
*BAY CITY      CLOUDY    76  70  80 S9        29.92R
PALACIOS       PTSUNNY   76  67  73 S16G23    29.89R
$$

TXZ229>234-239>247-241600-
TEXAS COASTAL BEND AND RIO GRANDE PLAINS

CITY           SKY/WX    TMP DP  RH WIND       PRES   REMARKS
VICTORIA       PTSUNNY   77  66  68 S21       29.85S
*BEEVILLE      PTSUNNY   77  67  71 S15       29.84R
ROCKPORT       MOSUNNY   76  68  76 S13       29.85S
*PORT ARANSAS  PTSUNNY   73  69  89 SE8       29.86S
*PORT LAVACA   PTSUNNY   76  67  73 S17       29.86S
*INGLESIDE     PTSUNNY   78  69  74 SE16      29.86R
CORPUS CHRISTI PTSUNNY   80  67  64 S18G24    29.84S
CORPUS NAS     PTSUNNY   77  70  79 SE16      29.85S
*ROBSTOWN      PTSUNNY   79  68  67 SE14G21   29.84S
ALICE          PTSUNNY   79  67  66 S12       29.83R
KINGSVILLE NAS PTSUNNY   79  68  69 SE15      29.83S
COTULLA        CLOUDY    73  65  75 SE8       29.84S
*FAITH RANCH   CLOUDY    75  66  73 CALM      29.85S
LAREDO         CLOUDY    74  67  78 SE3       29.87R
$$

TXZ248>255-241600-
DEEP SOUTH TEXAS

CITY           SKY/WX    TMP DP  RH WIND       PRES   REMARKS
BROWNSVILLE    MOSUNNY   81  69  67 S21       29.83R
PORT ISABEL    NOT AVBL
*SOUTH PADRE     N/A    N/A N/A N/A CALM      29.84R
HARLINGEN      MOSUNNY   81  68  64 S15       29.83R
*HEBBRONVILLE  CLOUDY    74  65  73 SE8       29.85R
MCALLEN        MOSUNNY   79  68  69 SE16G25   29.80F
*WESLACO       SUNNY     81  65  57 S16G22    29.83S
FALFURRIAS     PTSUNNY   77  67  71 SE8       29.83S
EDINBURG       MOSUNNY   81  66  60 S15       29.82S
*ZAPATA        MOSUNNY   79  66  64 E3        29.82R
$$

TXZ213>215-236>238-242>244-246-247-251-254-255-241600-
CMAN STATIONS

STATION/POSITION TIME  TEMP    WIND        PRES    WAVE
                       AIR SEA DIR/SP/G            HT/PER
                 (UTC) (F)     (DEG/KT/KT) (MB)    (FT/S)
SABINE PASS      1500   72 71  180/ 12/ 15 1013.4
SEA RIM ST PARK  1500   72     160/  9/ 11 1013.9
NORTH JETTY/GLS  1500   71 73  170/ 10/ 13   N/A
EAGLE POINT      1500   72 69  170/ 14/ 16 1012.4
MORGANS POINT    1500   74 70  160/ 10/ 15   N/A
MISSION/ARANSAS  1400   73     160/ 14     1012.0
PORT O`CONNOR    1500          160/ 12/ 15   N/A
PORT ARANSAS     1500   71 73  130/  9/ 11 1011.4
MALAQUITE BEACH  1500   72 73  110/ 10/ 11 1010.3
BAFFIN BAY       1500   74 72  140/ 11/ 15 1010.9
PORT ISABEL      1400   75 73  160/ 17/ 21 1009.9
$$

GMZ080-GMZ150>470-241600-
OFFSHORE BUOY REPORTS

STATION/POSITION TIME  TEMP    WIND        PRES    WAVE
                       AIR SEA DIR/SP/G            HT/PER
                 (UTC) (F)     (DEG/KT/KT) (MB)    (FT/S)
20 E GALVESTON   1500   70 69  140/ 10/ 12 1012.7    3/ 5
35 NE PT MANSFLD 1500   72 71  140/  6/  8 1010.9    4/ 6
$$



USA.gov is the U.S. government's official web portal to all federal, state and local government web resources and services.